Temp
-4 -4 -4 -5 -4 -5 -4 -5 -5 -5 -6 -6 -6 -6 -6 -6 -6 -6 -7 -7 -7 -7 -5 -5 -5 -5 -5 -5 -5 -5 -5 -5 -4 -5 -5 -5 -5 -5 -5 -5 -6 -6 -6 -6 -7 -7 -7 -7 -7
-4 -4 -4 -4 -4 -5 -4 -5 -5 -6 -6 -5 -6 -6 -6 -6 -7 -7 -8 -7 -8 -8 -6 -5 -5 -5 -5 -5 -5 -5 -5 -5 -5 -5 -5 -5 -5 -5 -5 -6 -6 -6 -6 -6 -6 -7 -7 -7 -7
-4 -4 -4 -4 -4 -5 -4 -5 -5 -6 -6 -6 -5 -6 -6 -6 -6 -7 -6 -7 -7 -6 -5 -5 -5 -5 -5 -5 -5 -5 -5 -5 -5 -5 -5 -5 -5 -5 -6 -6 -6 -6 -6 -6 -7 -7 -7 -7 -7
-5 -5 -4 -4 -5 -5 -5 -4 -5 -6 -6 -6 -6 -6 -6 -6 -6 -6 -6 -6 -6 -6 -5 -5 -5 -5 -5 -5 -5 -5 -5 -5 -5 -5 -5 -5 -5 -5 -6 -6 -6 -6 -6 -6 -6 -6 -7 -7 -7
-5 -5 -5 -5 -4 -5 -5 -5 -5 -5 -6 -6 -6 -6 -6 -6 -5 -5 -6 -6 -6 -5 -5 -5 -5 -5 -5 -5 -5 -5 -5 -5 -5 -5 -5 -5 -6 -6 -6 -6 -6 -6 -6 -6 -6 -6 -7 -7 -6
-5 -5 -5 -5 -5 -4 -5 -5 -5 -5 -6 -6 -6 -5 -5 -6 -6 -5 -6 -6 -6 -5 -5 -5 -5 -5 -5 -5 -5 -5 -5 -5 -5 -5 -5 -5 -6 -6 -6 -6 -6 -6 -6 -6 -6 -6 -6 -6 -6
-5 -6 -4 -5 -5 -5 -5 -5 -5 -5 -5 -5 -6 -5 -5 -6 -6 -6 -5 -6 -6 -5 -5 -5 -5 -5 -5 -5 -5 -5 -5 -5 -5 -5 -5 -5 -6 -6 -6 -6 -6 -6 -7 -6 -6 -6 -6 -6 -5
-6 -6 -5 -5 -5 -6 -5 -5 -5 -5 -5 -5 -5 -5 -5 -6 -6 -6 -6 -5 -5 -5 -5 -5 -5 -5 -5 -5 -5 -5 -5 -5 -5 -5 -5 -5 -6 -6 -6 -5 -5 -6 -6 -6 -6 -6 -6 -6 -5
-6 -6 -6 -6 -6 -6 -5 -5 -5 -5 -5 -5 -5 -5 -5 -5 -6 -6 -5 -5 -5 -5 -5 -5 -5 -5 -5 -5 -5 -5 -5 -5 -5 -5 -5 -5 -6 -6 -6 -6 -5 -6 -6 -6 -6 -6 -6 -6 -6
-5 -6 -6 -6 -6 -5 -5 -5 -5 -5 -5 -5 -5 -5 -5 -5 -5 -5 -5 -5 -5 -5 -6 -5 -5 -5 -5 -5 -5 -5 -5 -5 -5 -5 -6 -6 -6 -6 -6 -6 -6 -6 -6 -6 -6 -6 -6 -6 -6
-5 -6 -6 -6 -6 -6 -6 -5 -5 -6 -6 -6 -5 -5 -5 -5 -5 -5 -5 -5 -5 -5 -5 -5 -5 -5 -5 -5 -5 -5 -5 -5 -6 -6 -6 -6 -6 -6 -6 -6 -6 -6 -6 -6 -6 -6 -6 -6 -6
-5 -5 -6 -6 -6 -6 -6 -6 -6 -6 -6 -6 -6 -6 -5 -5 -5 -6 -6 -6 -5 -5 -5 -5 -5 -6 -6 -6 -5 -5 -5 -6 -6 -6 -6 -6 -6 -6 -6 -6 -6 -6 -6 -6 -6 -6 -6 -6 -6
-5 -6 -6 -6 -6 -6 -6 -6 -6 -6 -6 -5 -6 -6 -6 -5 -5 -5 -6 -6 -6 -6 -6 -5 -5 -6 -6 -6 -6 -6 -6 -6 -6 -6 -6 -6 -6 -6 -6 -6 -5 -5 -5 -5 -5 -5 -6 -5 -6
-5 -5 -5 -5 -6 -6 -6 -6 -6 -7 -6 -6 -5 -6 -6 -6 -6 -5 -5 -5 -6 -6 -6 -6 -6 -6 -6 -6 -6 -6 -6 -6 -6 -6 -6 -6 -6 -6 -6 -6 -5 -5 -5 -6 -6 -5 -5 -5 -5
-6 -5 -5 -5 -6 -6 -6 -6 -7 -7 -7 -6 -6 -5 -6 -6 -6 -6 -6 -6 -6 -6 -6 -6 -6 -6 -6 -6 -6 -6 -6 -6 -6 -6 -6 -6 -6 -6 -5 -6 -6 -5 -5 -5 -6 -6 -6 -6 -5
-6 -5 -5 -6 -6 -7 -6 -6 -6 -7 -7 -7 -6 -6 -5 -6 -6 -6 -6 -6 -6 -6 -6 -6 -6 -6 -6 -6 -6 -6 -6 -6 -6 -6 -6 -7 -6 -6 -6 -6 -6 -6 -5 -6 -6 -6 -6 -5 -5
-6 -5 -5 -6 -7 -7 -7 -7 -7 -7 -7 -7 -6 -6 -6 -6 -5 -6 -6 -6 -7 -7 -7 -6 -7 -6 -6 -6 -6 -6 -6 -6 -6 -6 -6 -6 -6 -6 -6 -6 -7 -6 -6 -6 -6 -6 -6 -6 -6
-6 -5 -6 -6 -6 -7 -7 -7 -7 -7 -7 -7 -7 -6 -6 -6 -6 -6 -6 -6 -6 -7 -7 -7 -6 -7 -7 -6 -7 -6 -6 -6 -7 -6 -7 -6 -7 -7 -7 -6 -6 -7 -7 -6 -6 -6 -6 -6 -6
-6 -6 -6 -6 -7 -7 -7 -7 -8 -7 -7 -7 -7 -7 -7 -7 -6 -6 -6 -6 -7 -7 -7 -7 -7 -7 -7 -7 -6 -6 -6 -6 -7 -6 -7 -7 -7 -7 -6 -7 -7 -7 -7 -7 -7 -6 -6 -6 -6
-6 -6 -6 -6 -6 -6 -7 -7 -7 -7 -6 -7 -6 -7 -7 -7 -7 -7 -6 -7 -7 -7 -6 -7 -7 -7 -7 -7 -7 -7 -7 -7 -7 -7 -7 -7 -7 -7 -6 -7 -7 -7 -7 -7 -8 -7 -7 -6 -6
-6 -6 -6 -6 -6 -6 -6 -6 -6 -7 -7 -7 -6 -6 -7 -7 -7 -7 -7 -6 -7 -7 -6 -6 -7 -7 -7 -7 -7 -7 -7 -7 -7 -7 -7 -7 -7 -7 -7 -7 -7 -7 -8 -8 -8 -8 -7 -6 -6
-5 -7 -6 -6 -6 -6 -6 -5 -6 -7 -7 -7 -7 -7 -6 -7 -7 -7 -7 -7 -6 -7 -7 -6 -6 -7 -7 -7 -7 -7 -7 -7 -7 -7 -7 -7 -7 -7 -7 -7 -7 -7 -8 -8 -8 -7 -7 -6 -6
-5 -6 -5 -6 -7 -6 -6 -6 -6 -6 -6 -7 -6 -7 -7 -7 -8 -7 -7 -7 -7 -7 -7 -7 -7 -7 -7 -7 -7 -7 -7 -7 -7 -7 -7 -7 -7 -7 -7 -7 -7 -7 -8 -7 -7 -7 -6 -7 -6
-6 -5 -5 -6 -6 -6 -7 -6 -6 -6 -6 -6 -7 -7 -7 -7 -8 -8 -8 -7 -7 -7 -7 -7 -7 -7 -7 -7 -7 -7 -7 -7 -7 -7 -7 -7 -7 -7 -7 -7 -7 -7 -7 -6 -6 -6 -6 -6 -6
-5 -5 -6 -6 -6 -6 -7 -7 -6 -6 -6 -6 -7 -7 -7 -7 -8 -8 -7 -7 -7 -7 -7 -7 -7 -7 -7 -7 -7 -7 -7 -7 -7 -7 -7 -7 -8 -7 -7 -7 -7 -7 -6 -6 -5 -6 -6 -6 -6
-6 -6 -6 -6 -6 -7 -7 -7 -7 -6 -7 -7 -7 -7 -7 -7 -7 -7 -7 -7 -7 -7 -7 -7 -7 -7 -7 -7 -7 -7 -7 -7 -7 -7 -7 -8 -8 -7 -8 -7 -7 -7 -6 -6 -6 -6 -6 -7 -7
-6 -6 -7 -7 -7 -7 -7 -7 -7 -6 -7 -7 -7 -7 -7 -7 -7 -8 -6 -7 -8 -8 -8 -8 -8 -8 -8 -8 -8 -7 -7 -7 -7 -7 -7 -7 -8 -8 -8 -7 -7 -7 -7 -6 -6 -6 -6 -6 -7
-6 -7 -7 -7 -7 -7 -7 -7 -6 -7 -7 -7 -7 -7 -7 -8 -8 -8 -8 -8 -8 -8 -8 -8 -8 -8 -8 -8 -8 -8 -8 -7 -7 -7 -7 -7 -8 -8 -8 -8 -7 -7 -7 -7 -7 -7 -7 -7 -7
-6 -7 -8 -8 -8 -7 -7 -6 -7 -7 -7 -7 -7 -7 -7 -8 -8 -8 -8 -8 -8 -9 -9 -9 -8 -8 -8 -8 -8 -9 -8 -8 -8 -7 -8 -8 -8 -8 -8 -7 -7 -7 -8 -8 -7 -7 -7 -7 -7
-8 -8 -8 -8 -8 -8 -7 -6 -6 -7 -7 -7 -7 -7 -7 -8 -8 -8 -8 -8 -8 -9 -9 -9 -9 -8 -8 -8 -8 -9 -9 -8 -8 -8 -8 -8 -8 -8 -8 -8 -8 -8 -8 -8 -8 -7 -7 -7 -7
Height
5906 5905 5904 5904 5905 5902 5902 5901 5900 5901 5902 5901 5900 5898 5898 5898 5899 5902 5902 5904 5906 5910 5913 5913 5915 5917 5919 5923 5921 5922 5922 5922 5921 5924 5924 5923 5923 5922 5923 5923 5923 5922 5921 5920 5920 5919 5918 5917 5916
5909 5908 5907 5907 5906 5905 5905 5904 5904 5904 5905 5904 5904 5904 5903 5903 5903 5906 5908 5910 5909 5912 5915 5918 5920 5919 5924 5924 5922 5924 5926 5924 5925 5926 5927 5926 5925 5926 5926 5926 5925 5924 5923 5922 5923 5922 5920 5918 5917
5914 5913 5912 5910 5909 5908 5908 5906 5906 5907 5907 5908 5908 5908 5908 5908 5909 5910 5913 5916 5917 5917 5921 5922 5923 5923 5927 5924 5923 5926 5927 5928 5928 5929 5929 5929 5928 5929 5928 5928 5928 5926 5925 5924 5925 5924 5921 5920 5918
5917 5917 5915 5912 5911 5911 5910 5910 5910 5909 5910 5911 5912 5912 5912 5913 5911 5913 5915 5915 5918 5919 5922 5925 5926 5928 5926 5925 5927 5929 5931 5931 5931 5932 5932 5932 5932 5931 5930 5929 5930 5927 5926 5926 5926 5925 5922 5921 5920
5920 5919 5919 5916 5913 5913 5913 5913 5913 5912 5913 5914 5915 5916 5915 5915 5916 5917 5919 5919 5921 5922 5925 5926 5926 5928 5926 5928 5931 5932 5933 5934 5934 5934 5935 5934 5934 5934 5932 5931 5931 5930 5928 5928 5930 5928 5926 5924 5922
5922 5921 5922 5920 5917 5915 5915 5915 5915 5915 5915 5916 5918 5918 5918 5919 5920 5920 5921 5922 5924 5925 5927 5927 5927 5928 5929 5931 5933 5933 5935 5936 5937 5937 5936 5937 5937 5936 5935 5933 5934 5933 5930 5930 5930 5931 5928 5926 5924
5925 5925 5924 5922 5920 5918 5918 5917 5917 5917 5917 5918 5919 5920 5920 5920 5922 5922 5923 5923 5926 5926 5927 5928 5928 5930 5931 5934 5935 5936 5936 5938 5939 5939 5938 5939 5939 5938 5937 5936 5937 5935 5933 5933 5933 5933 5931 5929 5927
5929 5928 5926 5924 5923 5921 5920 5920 5920 5920 5919 5919 5920 5921 5922 5921 5923 5925 5924 5925 5926 5927 5929 5930 5931 5932 5933 5935 5936 5937 5938 5939 5939 5940 5940 5941 5941 5940 5939 5938 5938 5937 5936 5936 5936 5934 5932 5932 5931
5933 5931 5928 5927 5925 5924 5922 5922 5922 5922 5923 5922 5922 5922 5923 5924 5924 5925 5926 5927 5927 5929 5930 5931 5931 5934 5935 5937 5937 5938 5938 5939 5939 5941 5941 5941 5941 5940 5940 5939 5939 5938 5936 5938 5938 5936 5935 5933 5933
5935 5934 5932 5930 5929 5927 5925 5924 5925 5924 5924 5924 5923 5924 5924 5925 5926 5927 5928 5929 5930 5931 5931 5932 5933 5935 5936 5937 5938 5940 5939 5939 5941 5943 5943 5942 5941 5940 5940 5939 5939 5938 5939 5938 5939 5936 5936 5935 5934
5937 5934 5935 5933 5932 5930 5929 5928 5927 5926 5926 5925 5926 5927 5926 5925 5926 5928 5930 5930 5932 5933 5933 5933 5935 5936 5937 5938 5939 5939 5939 5940 5942 5943 5943 5943 5942 5942 5941 5941 5940 5941 5940 5939 5938 5938 5937 5935 5936
5940 5936 5936 5936 5936 5934 5933 5931 5930 5929 5929 5928 5927 5928 5929 5929 5929 5929 5931 5932 5934 5935 5935 5936 5937 5937 5938 5938 5938 5939 5939 5941 5942 5942 5943 5942 5941 5941 5940 5941 5942 5942 5941 5940 5939 5938 5937 5937 5936
5941 5937 5938 5937 5938 5938 5936 5935 5933 5931 5931 5930 5929 5929 5930 5931 5930 5930 5931 5933 5935 5936 5937 5938 5939 5938 5938 5938 5938 5939 5940 5941 5941 5942 5943 5942 5941 5942 5941 5940 5941 5942 5942 5941 5940 5939 5937 5937 5936
5945 5941 5939 5940 5940 5940 5938 5937 5936 5934 5934 5932 5932 5930 5930 5931 5932 5932 5933 5933 5934 5936 5938 5938 5938 5938 5938 5938 5939 5939 5939 5939 5940 5941 5942 5941 5942 5943 5941 5940 5940 5940 5941 5941 5940 5939 5938 5938 5937
5947 5945 5943 5942 5943 5943 5942 5941 5939 5937 5934 5934 5935 5933 5932 5931 5931 5932 5934 5936 5936 5936 5937 5938 5938 5938 5938 5938 5938 5939 5939 5940 5940 5940 5940 5941 5942 5941 5941 5940 5940 5940 5940 5939 5939 5939 5938 5937 5937
5947 5947 5946 5945 5944 5944 5944 5942 5941 5940 5938 5936 5936 5935 5933 5932 5932 5932 5933 5935 5936 5936 5937 5938 5938 5937 5937 5937 5937 5939 5939 5940 5939 5940 5941 5942 5942 5941 5940 5940 5941 5940 5940 5938 5938 5939 5938 5938 5938
5947 5948 5947 5946 5945 5945 5945 5944 5943 5942 5941 5939 5937 5936 5936 5935 5934 5933 5933 5933 5935 5936 5936 5937 5937 5937 5936 5936 5937 5938 5938 5939 5940 5940 5941 5943 5942 5941 5942 5941 5941 5940 5939 5938 5938 5938 5937 5937 5937
5948 5948 5947 5947 5947 5945 5946 5945 5944 5944 5943 5942 5940 5939 5938 5937 5936 5935 5934 5934 5934 5935 5935 5935 5936 5936 5936 5935 5936 5937 5938 5938 5940 5940 5941 5941 5942 5942 5942 5941 5941 5940 5939 5938 5938 5937 5937 5937 5936
5946 5947 5947 5947 5947 5947 5946 5946 5945 5945 5944 5945 5943 5941 5938 5939 5937 5936 5934 5934 5933 5934 5935 5934 5935 5934 5934 5934 5934 5935 5937 5938 5940 5940 5940 5940 5942 5942 5942 5941 5940 5939 5937 5936 5936 5936 5935 5935 5935
5944 5946 5945 5946 5946 5946 5946 5947 5947 5946 5945 5944 5944 5943 5941 5939 5939 5938 5936 5934 5934 5934 5934 5933 5933 5933 5933 5933 5933 5935 5936 5938 5939 5940 5940 5941 5942 5942 5942 5940 5939 5937 5935 5933 5932 5933 5934 5934 5934
5942 5944 5944 5945 5945 5945 5947 5948 5947 5946 5946 5945 5944 5943 5943 5941 5939 5939 5938 5936 5935 5935 5935 5935 5933 5932 5932 5933 5934 5935 5936 5937 5939 5940 5940 5941 5941 5941 5941 5940 5938 5935 5933 5930 5929 5931 5932 5932 5932
5940 5941 5942 5943 5944 5945 5946 5949 5948 5945 5945 5944 5943 5943 5941 5941 5941 5940 5938 5937 5936 5936 5936 5936 5935 5933 5932 5932 5934 5935 5936 5937 5938 5939 5940 5940 5941 5940 5939 5938 5936 5933 5930 5928 5928 5929 5931 5931 5931
5938 5938 5940 5940 5942 5944 5945 5948 5948 5946 5945 5942 5941 5941 5940 5939 5939 5938 5938 5938 5937 5937 5937 5936 5935 5935 5933 5933 5933 5934 5935 5937 5937 5937 5938 5938 5939 5939 5938 5938 5935 5931 5927 5925 5925 5928 5930 5930 5931
5933 5935 5936 5938 5940 5942 5943 5945 5946 5946 5944 5942 5941 5940 5938 5938 5938 5938 5937 5937 5937 5936 5937 5937 5936 5935 5935 5934 5934 5934 5933 5934 5935 5935 5936 5937 5938 5938 5938 5937 5934 5930 5926 5923 5925 5928 5929 5930 5931
5929 5931 5932 5935 5936 5940 5940 5942 5944 5944 5943 5941 5942 5940 5938 5937 5937 5937 5937 5936 5936 5936 5936 5936 5936 5936 5935 5935 5934 5934 5933 5932 5932 5934 5936 5937 5938 5938 5938 5936 5933 5930 5927 5924 5927 5930 5930 5931 5931
5925 5926 5928 5930 5932 5935 5936 5937 5942 5942 5941 5940 5940 5941 5939 5937 5936 5937 5936 5935 5935 5935 5935 5934 5933 5934 5933 5933 5933 5933 5933 5932 5931 5933 5935 5936 5938 5937 5937 5936 5935 5932 5929 5927 5930 5930 5931 5931 5931
5919 5921 5925 5926 5928 5930 5932 5935 5938 5939 5939 5939 5940 5941 5940 5937 5935 5934 5934 5934 5934 5934 5933 5932 5931 5929 5930 5930 5930 5929 5931 5932 5931 5931 5932 5934 5935 5936 5936 5936 5935 5933 5931 5929 5930 5930 5931 5931 5931
5914 5918 5920 5922 5924 5926 5927 5931 5935 5937 5936 5938 5938 5940 5939 5938 5937 5935 5933 5932 5934 5935 5933 5931 5929 5928 5927 5926 5928 5926 5927 5929 5930 5930 5931 5932 5933 5935 5935 5936 5935 5933 5932 5931 5929 5930 5930 5930 5929
5910 5912 5915 5919 5920 5922 5923 5927 5933 5934 5934 5936 5938 5938 5937 5936 5936 5935 5933 5932 5933 5933 5930 5930 5928 5927 5924 5922 5918 5925 5927 5928 5929 5929 5929 5930 5932 5933 5934 5935 5934 5933 5932 5930 5930 5930 5929 5929 5928
5905 5909 5913 5915 5917 5918 5919 5924 5928 5930 5933 5935 5935 5935 5934 5933 5932 5932 5931 5929 5932 5930 5927 5928 5927 5926 5919 5903 5911 5917 5925 5927 5929 5929 5929 5929 5929 5931 5932 5932 5933 5931 5930 5929 5928 5928 5927 5927 5925
Wind_Speed
17 14 15 16 17 20 17 19 20 19 18 21 23 28 28 28 18 14 17 28 30 25 20 21 22 21 20 19 21 21 20 21 21 19 21 23 24 24 21 20 20 20 21 21 17 16 15 13 13
20 18 15 15 18 17 19 21 19 18 18 17 20 23 26 25 29 32 28 28 32 29 22 19 20 20 17 18 20 20 18 19 19 19 19 21 22 21 22 21 21 20 20 19 17 17 16 13 12
23 19 16 16 17 16 18 20 21 19 18 16 16 17 21 24 24 26 25 27 24 22 19 18 19 19 16 18 19 18 18 19 19 18 19 19 19 18 20 20 20 20 21 18 14 17 16 13 9
28 26 19 17 15 16 16 18 19 18 17 16 15 17 17 18 23 22 21 21 19 18 16 18 18 18 19 19 17 16 16 18 18 16 16 15 16 16 16 19 19 19 19 18 15 16 17 10 11
24 24 22 16 14 13 16 16 15 16 16 15 13 13 17 16 16 17 18 18 17 18 16 18 19 18 19 19 17 15 14 14 14 14 14 14 14 15 15 17 19 18 18 17 12 13 15 9 7
22 23 21 20 16 12 13 13 15 15 16 15 10 12 16 13 11 15 14 16 14 15 17 18 19 20 19 18 17 15 13 13 13 12 13 11 12 14 15 16 18 17 15 15 15 13 19 16 12
17 17 18 18 20 16 12 11 15 15 15 13 11 10 14 16 8 12 13 14 12 13 13 16 17 18 18 17 17 15 13 11 10 11 10 8 8 12 14 14 15 18 20 17 13 14 15 18 21
17 18 20 18 19 19 15 13 11 13 13 12 11 11 11 15 13 11 13 14 13 12 11 13 15 15 15 15 15 14 12 10 8 7 7 7 7 10 11 12 14 15 16 14 14 12 14 17 20
11 15 19 21 19 17 17 15 12 10 10 12 10 9 10 9 11 10 10 11 11 12 11 11 13 13 13 11 13 11 11 9 6 3 3 5 5 9 9 11 12 15 12 11 9 11 10 12 16
9 13 15 21 19 16 14 14 11 11 10 10 10 7 8 8 8 6 7 9 9 8 9 12 11 10 9 8 10 8 8 6 3 2 1 3 5 7 7 9 10 10 10 9 10 9 8 12 11
9 15 13 17 18 16 13 12 11 13 12 10 9 6 7 8 9 7 6 7 9 10 10 9 10 10 9 6 6 6 7 6 4 3 3 4 5 5 8 9 9 8 7 8 9 8 7 9 8
8 11 14 12 14 19 16 12 9 14 14 10 10 7 5 5 7 6 6 6 6 8 9 9 10 9 8 5 3 2 5 7 7 6 6 6 5 4 6 6 6 7 6 5 6 6 7 4 4
7 12 18 14 12 15 17 17 13 12 11 13 10 8 7 5 6 7 5 4 4 6 7 8 9 8 6 3 1 2 3 5 6 6 6 5 5 3 3 4 4 5 3 2 3 4 3 3 2
10 14 18 13 12 12 15 17 16 13 10 10 10 11 9 7 6 5 5 5 5 5 6 8 8 8 6 4 4 3 2 4 6 7 5 5 5 3 4 3 5 5 5 3 4 3 4 4 1
7 9 11 12 10 8 10 13 15 15 12 10 7 8 9 10 9 7 5 4 4 6 8 9 11 11 10 8 5 4 0 2 6 6 6 4 3 3 5 6 5 6 6 5 4 3 3 4 1
3 3 9 9 9 8 8 11 11 13 13 10 8 6 5 7 9 8 6 4 1 5 6 7 11 13 11 9 7 6 3 5 6 6 6 5 4 5 6 8 7 7 8 7 4 2 2 3 1
6 3 8 6 6 6 8 9 10 11 14 9 8 8 5 4 4 6 6 5 3 2 8 9 7 9 9 9 8 6 7 6 5 4 4 6 6 7 7 7 7 7 8 8 6 4 3 2 2
9 3 8 6 4 8 9 9 10 9 8 13 10 9 6 5 4 3 3 4 3 2 5 10 10 8 8 7 7 6 7 5 5 5 6 6 3 6 6 6 7 8 7 6 7 6 5 2 2
6 5 1 6 10 9 7 6 6 6 5 9 9 7 7 5 5 5 4 3 4 4 1 4 4 2 5 6 6 8 8 8 8 6 5 3 2 4 5 6 11 11 10 10 7 7 7 4 3
9 7 2 1 11 10 8 3 2 6 5 7 9 8 4 5 5 3 4 4 3 3 1 3 4 4 4 4 5 6 7 7 5 4 5 5 2 4 6 9 11 12 14 7 9 8 8 4 4
10 12 12 9 9 11 9 5 8 5 5 6 5 5 4 2 3 2 1 3 4 2 2 1 5 5 5 3 3 3 5 4 3 2 3 2 3 4 7 9 12 14 15 7 8 8 7 5 4
11 17 15 14 12 14 11 7 5 4 3 6 5 3 8 3 2 3 1 1 2 4 1 1 3 4 5 4 2 1 2 2 2 3 4 1 3 5 6 9 13 16 16 7 10 10 6 4 4
14 17 16 14 15 16 16 10 10 7 4 6 6 3 7 3 3 5 4 3 1 2 2 3 4 4 5 3 1 3 4 4 3 2 1 1 2 2 5 9 13 18 15 7 13 11 7 5 2
16 19 17 15 17 18 18 11 12 11 5 2 5 8 6 2 3 2 3 6 6 2 0 1 1 2 3 3 3 2 6 7 5 4 3 4 4 1 5 9 14 18 14 2 13 10 6 6 4
20 19 19 17 17 13 17 15 14 12 7 8 5 5 2 5 3 6 7 6 4 4 3 0 2 3 2 1 1 3 5 6 6 6 7 5 5 2 5 9 13 17 15 6 9 8 7 6 5
20 19 20 18 16 16 19 19 15 12 7 9 12 6 4 10 6 4 5 7 10 4 4 5 4 5 6 8 6 3 6 7 7 6 6 6 6 4 4 7 11 14 14 5 3 4 4 5 5
22 21 21 22 19 18 22 24 16 13 8 8 12 9 2 6 9 8 1 2 4 6 4 5 6 7 8 11 11 8 9 7 7 6 7 8 6 4 1 3 8 11 12 9 2 4 5 5 5
23 22 23 26 25 23 21 22 19 12 8 10 12 6 1 2 6 10 10 11 7 12 5 8 10 10 12 17 16 14 13 9 6 7 7 9 7 6 5 4 5 8 9 10 6 3 5 6 7
24 25 24 25 30 26 25 23 16 15 10 13 7 6 3 1 5 9 16 16 9 12 8 8 12 12 17 20 25 16 11 8 6 7 8 9 9 8 7 6 7 8 8 7 7 6 7 7 6
27 22 19 20 20 22 21 17 22 16 13 7 6 9 6 6 7 12 17 22 10 12 11 10 11 13 20 17 11 19 10 7 6 6 5 8 10 9 8 6 6 8 8 9 8 8 8 9 8
Wind_Direction
61 63 69 75 74 76 82 96 105 101 97 96 92 89 83 85 88 126 116 103 99 102 108 110 114 115 115 117 108 105 103 103 95 86 81 81 79 75 70 65 64 63 63 66 64 57 55 47 53
59 59 72 79 79 82 87 90 97 98 95 92 90 86 87 82 86 76 85 114 113 107 102 105 112 111 118 116 107 103 108 101 98 92 84 82 80 78 72 64 61 59 59 61 61 57 52 48 46
50 49 56 80 86 83 83 91 96 98 93 93 94 88 85 96 99 102 102 90 98 107 122 121 118 113 120 109 101 109 107 107 100 93 88 84 83 74 70 64 57 51 51 58 51 57 55 46 32
45 43 44 56 79 86 83 82 89 96 99 92 95 89 91 93 102 108 117 111 114 111 116 116 118 119 107 98 99 101 107 108 105 93 86 81 79 73 68 63 57 54 49 55 46 67 69 72 57
49 50 46 54 72 88 87 90 94 95 96 99 98 96 90 91 99 102 109 113 119 120 124 125 117 113 106 106 104 102 106 110 109 96 82 77 75 70 66 63 61 60 54 51 48 61 49 60 58
54 42 50 54 66 80 97 99 100 99 95 94 100 115 104 95 105 111 111 111 114 124 131 126 121 117 114 112 109 108 108 108 108 95 85 77 75 76 76 75 68 58 58 56 50 52 48 48 41
61 49 47 61 63 73 83 108 103 101 100 98 106 108 112 108 107 115 112 106 114 117 121 124 123 124 120 121 117 114 111 106 99 94 85 75 73 84 82 71 61 60 65 52 51 64 60 51 60
65 59 61 60 58 65 70 76 88 102 108 109 106 115 117 120 123 135 127 133 124 116 120 125 128 125 120 123 122 120 117 116 106 95 92 70 71 79 79 69 61 65 63 45 35 49 66 54 57
61 63 63 66 61 55 59 68 79 92 108 109 107 110 110 120 132 141 140 135 136 134 133 133 127 130 129 130 125 125 125 123 117 122 94 86 82 83 65 63 50 62 41 41 39 28 55 64 56
41 82 80 68 61 61 59 56 69 78 81 100 113 119 110 124 128 136 136 136 147 151 138 141 136 133 132 132 122 127 122 119 112 129 110 104 90 73 62 48 53 58 58 31 45 58 38 50 46
30 98 78 79 68 66 67 62 47 63 74 76 80 123 143 152 133 132 137 138 153 163 167 153 146 142 133 124 120 123 119 127 147 129 160 113 92 66 58 54 61 51 59 54 41 44 41 53 48
75 100 101 95 81 66 68 68 56 62 72 85 88 94 134 155 124 118 118 135 156 163 165 167 156 147 137 128 97 108 139 158 165 159 163 143 126 104 72 68 55 67 64 54 43 15 22 31 29
72 91 116 108 90 68 64 60 58 55 61 76 88 96 88 115 155 150 144 138 163 171 169 177 174 167 156 150 187 209 193 180 183 173 175 146 129 125 82 51 39 49 46 25 348 352 334 346 317
73 94 115 101 102 71 60 55 42 39 43 58 82 94 110 107 100 113 155 177 207 209 203 197 203 198 194 215 243 241 223 215 209 187 179 163 131 132 101 35 5 6 3 14 329 323 303 314 309
54 100 120 91 97 86 73 63 46 33 24 41 49 81 93 95 96 98 99 133 211 236 240 228 229 228 224 222 226 216 195 188 202 186 167 160 124 81 79 68 44 25 24 20 16 329 299 288 232
77 91 137 108 117 118 90 75 42 40 25 8 27 48 48 85 100 101 90 84 185 233 234 241 234 238 226 223 210 191 174 186 174 176 150 142 120 89 71 71 53 32 21 12 13 11 346 316 276
87 91 153 123 121 111 92 70 45 41 49 21 351 18 14 13 59 94 91 84 78 185 220 226 218 228 222 204 204 184 184 169 167 178 166 110 84 63 40 49 35 20 7 358 339 312 281 20 60
147 122 164 137 138 131 115 62 52 39 43 37 23 355 11 337 357 36 64 76 54 98 207 207 215 219 222 194 181 175 188 189 215 205 152 131 82 59 22 30 26 358 343 324 314 288 268 205 157
171 151 189 185 139 124 93 81 53 26 14 46 42 26 6 1 343 12 23 44 34 36 140 169 161 167 176 168 160 165 191 215 215 208 153 182 151 27 30 360 343 343 328 287 272 276 264 233 174
191 185 225 297 192 195 179 147 104 45 59 41 57 39 12 353 347 346 30 45 41 3 24 162 132 115 129 126 126 152 182 218 230 205 161 176 99 11 344 343 346 334 330 292 232 251 258 253 202
207 202 211 230 236 217 213 148 135 85 30 8 15 30 40 299 318 338 349 55 53 21 300 176 145 143 139 122 123 163 198 204 241 212 184 149 20 2 346 344 333 334 337 311 208 225 245 242 215
210 216 234 222 240 246 242 214 162 129 52 302 299 325 327 339 275 284 332 73 120 77 42 141 147 149 137 151 188 148 267 246 201 164 147 74 353 9 17 345 338 335 334 316 208 202 213 227 210
209 222 233 232 232 242 251 249 217 231 291 286 281 266 310 307 347 273 292 312 0 70 78 110 104 104 111 140 189 203 194 190 194 193 200 280 324 12 9 351 344 348 345 312 200 197 191 177 223
214 230 242 229 231 239 242 245 220 223 212 201 225 266 260 253 1 5 297 296 312 283 227 349 105 98 90 89 97 142 198 191 195 200 187 198 177 74 16 5 1 356 349 337 190 191 185 170 180
234 245 249 239 244 232 238 241 212 223 213 192 237 289 322 356 3 19 26 3 326 286 267 262 330 296 249 224 123 134 132 152 171 191 193 197 180 127 38 17 12 5 7 84 184 187 180 181 196
240 245 242 239 242 234 228 245 212 209 204 201 192 245 337 20 40 28 89 52 33 357 271 257 258 261 266 244 231 208 174 161 152 165 191 190 190 139 48 20 14 17 15 61 183 187 193 200 206
234 231 235 240 245 240 237 243 204 195 191 211 183 207 308 12 28 15 194 31 353 340 257 273 267 262 249 247 229 208 207 193 159 148 181 191 184 188 190 12 10 12 17 27 343 267 222 238 248
229 227 231 238 246 251 248 233 192 183 192 214 211 210 239 351 312 350 294 301 317 340 272 275 264 271 274 259 236 202 199 195 191 169 173 185 196 218 257 299 337 351 359 6 19 334 279 281 293
225 222 233 242 248 253 257 235 188 193 187 219 225 233 246 286 350 267 274 279 298 313 265 272 274 282 285 259 232 193 195 197 204 194 190 202 222 236 257 281 306 321 331 331 330 334 335 327 318
221 222 214 228 242 250 248 230 204 194 187 198 191 207 228 274 317 280 259 271 264 286 265 265 263 274 279 330 202 169 180 182 200 190 212 222 232 252 271 287 311 311 308 314 282 287 301 305 305